| time (UTC) | temp F | wind direction | speed MPH | gust MPH | rain 1hr in | rain 24hr in | rain mn in | humidity % | barometer mb |
| 20260831210207 | 58 | 282 | 0.0 | 0.0 | 0.00 | 0.55 | 0.33 | 82 | 1017.3 |
| 20260831205225 | 58 | 280 | 0.0 | 0.0 | 0.00 | 0.56 | 0.33 | 83 | 1017.2 |
| 20260831203116 | 57 | 113 | 0.0 | 0.0 | 0.00 | 0.56 | 0.33 | 83 | 1017.2 |
| 20260831202047 | 57 | 255 | 0.0 | 0.0 | 0.00 | 0.56 | 0.33 | 82 | 1017.1 |
| 20260831201023 | 58 | 255 | 0.0 | 0.0 | 0.00 | 0.56 | 0.33 | 81 | 1017.0 |
| 20260831195954 | 58 | 77 | 0.0 | 0.0 | 0.00 | 0.57 | 0.33 | 80 | 1016.9 |
| 20260831195014 | 59 | 257 | 0.0 | 1.0 | 0.00 | 0.58 | 0.33 | 79 | 1016.8 |
| 20260831194021 | 59 | 235 | 0.0 | 2.0 | 0.00 | 0.58 | 0.33 | 78 | 1016.7 |
| 20260831193026 | 59 | 267 | 0.0 | 6.0 | 0.00 | 0.58 | 0.33 | 78 | 1016.5 |
| 20260831185654 | 61 | 281 | 0.0 | 7.0 | 0.00 | 0.58 | 0.33 | 76 | 1015.9 |
| 20260831184620 | 61 | 257 | 0.0 | 3.0 | 0.00 | 0.58 | 0.33 | 76 | 1015.9 |
| 20260831183631 | 61 | 259 | 0.0 | 5.0 | 0.00 | 0.58 | 0.33 | 75 | 1015.7 |
| 20260831182603 | 61 | 278 | 0.0 | 5.0 | 0.00 | 0.58 | 0.33 | 74 | 1015.5 |
| 20260831180413 | 62 | 285 | 2.0 | 9.0 | 0.00 | 0.58 | 0.33 | 71 | 1015.1 |
| 20260831175406 | 63 | 278 | 2.0 | 11.0 | 0.00 | 0.58 | 0.33 | 70 | 1014.9 |
| 20260831174400 | 63 | 259 | 3.0 | 11.0 | 0.00 | 0.58 | 0.33 | 68 | 1014.8 |
| 20260831173343 | 64 | 247 | 2.0 | 9.0 | 0.00 | 0.58 | 0.33 | 67 | 1014.7 |
| 20260831172313 | 65 | 280 | 1.0 | 9.0 | 0.00 | 0.58 | 0.33 | 66 | 1014.5 |
| 20260831171300 | 65 | 268 | 0.0 | 10.0 | 0.00 | 0.58 | 0.33 | 67 | 1014.5 |
| 20260831170237 | 65 | 250 | 2.0 | 10.0 | 0.00 | 0.58 | 0.33 | 66 | 1014.4 |
| 20260831165235 | 65 | 155 | 2.0 | 9.0 | 0.00 | 0.58 | 0.33 | 67 | 1014.1 |
| 20260831164230 | 65 | 240 | 2.0 | 12.0 | 0.00 | 0.58 | 0.33 | 68 | 1014.0 |
| 20260831163251 | 66 | 257 | 2.0 | 12.0 | 0.00 | 0.58 | 0.33 | 68 | 1013.9 |
| 20260831162246 | 66 | 38 | 3.0 | 14.0 | 0.00 | 0.58 | 0.33 | 69 | 1013.8 |
| 20260831161230 | 67 | 283 | 2.0 | 14.0 | 0.00 | 0.58 | 0.33 | 68 | 1013.8 |
| 20260831155126 | 69 | 272 | 2.0 | 15.0 | 0.00 | 0.58 | 0.33 | 65 | 1013.4 |
| 20260831154104 | 69 | 309 | 2.0 | 15.0 | 0.00 | 0.58 | 0.33 | 64 | 1013.3 |
| 20260831153040 | 69 | 293 | 3.0 | 11.0 | 0.00 | 0.58 | 0.33 | 63 | 1013.2 |
| 20260831152051 | 70 | 257 | 3.0 | 11.0 | 0.00 | 0.58 | 0.33 | 62 | 1013.0 |
| 20260831151032 | 70 | 278 | 3.0 | 13.0 | 0.00 | 0.58 | 0.33 | 61 | 1012.7 |
| 20260831150034 | 70 | 84 | 3.0 | 10.0 | 0.00 | 0.58 | 0.33 | 62 | 1012.6 |
| 20260831142742 | 70 | 269 | 3.0 | 13.0 | 0.00 | 0.58 | 0.33 | 65 | 1012.2 |
| 20260831141717 | 69 | 198 | 2.0 | 14.0 | 0.00 | 0.58 | 0.33 | 64 | 1012.0 |
| 20260831135531 | 70 | 254 | 3.0 | 10.0 | 0.00 | 0.58 | 0.33 | 66 | 1011.6 |
| 20260831134501 | 70 | 323 | 2.0 | 9.0 | 0.00 | 0.58 | 0.33 | 69 | 1011.4 |
| 20260831133444 | 70 | 232 | 2.0 | 9.0 | 0.00 | 0.58 | 0.33 | 69 | 1011.3 |
| 20260831132412 | 69 | 265 | 2.0 | 9.0 | 0.00 | 0.58 | 0.33 | 71 | 1011.3 |
| 20260831130310 | 68 | 276 | 1.0 | 6.0 | 0.00 | 0.58 | 0.33 | 75 | 1010.9 |
| 20260831125242 | 67 | 243 | 0.0 | 6.0 | 0.05 | 0.58 | 0.33 | 78 | 1010.8 |
| 20260831124302 | 67 | 283 | 1.0 | 5.0 | 0.00 | 0.57 | 0.33 | 74 | 1010.8 |
| 20260831122133 | 67 | 66 | 0.0 | 5.0 | 0.00 | 0.56 | 0.32 | 76 | 1010.3 |
| 20260831121122 | 67 | 236 | 0.0 | 10.0 | 0.00 | 0.56 | 0.32 | 77 | 1010.2 |
| 20260831120055 | 68 | 269 | 1.0 | 10.0 | 0.00 | 0.56 | 0.32 | 73 | 1010.1 |
| 20260831115044 | 69 | 229 | 0.0 | 5.0 | 0.00 | 0.56 | 0.32 | 70 | 1009.9 |
| 20260831114051 | 68 | 260 | 0.0 | 5.0 | 0.00 | 0.56 | 0.32 | 68 | 1009.7 |
| 20260831113032 | 69 | 236 | 1.0 | 8.0 | 0.00 | 0.56 | 0.32 | 69 | 1009.6 |
| 20260831112042 | 68 | 216 | 1.0 | 8.0 | 0.00 | 0.56 | 0.32 | 69 | 1009.4 |
| 20260831111052 | 68 | 261 | 0.0 | 6.0 | 0.00 | 0.56 | 0.32 | 72 | 1009.3 |
| 20260831110058 | 67 | 283 | 0.0 | 4.0 | 0.00 | 0.56 | 0.32 | 71 | 1009.2 |
| 20260831105026 | 68 | 19 | 0.0 | 9.0 | 0.00 | 0.56 | 0.32 | 71 | 1009.1 |
| 20260831104037 | 67 | 231 | 1.0 | 9.0 | 0.00 | 0.56 | 0.32 | 72 | 1008.9 |
| 20260831103052 | 66 | 252 | 1.0 | 11.0 | 0.00 | 0.56 | 0.32 | 73 | 1008.9 |
| 20260831102057 | 66 | 274 | 2.0 | 11.0 | 0.00 | 0.56 | 0.32 | 73 | 1008.8 |
| 20260831101036 | 66 | 250 | 0.0 | 5.0 | 0.00 | 0.56 | 0.32 | 76 | 1008.5 |
| 20260831100025 | 65 | 271 | 1.0 | 6.0 | 0.00 | 0.56 | 0.32 | 76 | 1008.4 |
| 20260831094950 | 65 | 274 | 1.0 | 7.0 | 0.00 | 0.56 | 0.32 | 77 | 1008.4 |
| 20260831094001 | 65 | 68 | 0.0 | 9.0 | 0.00 | 0.56 | 0.32 | 79 | 1008.3 |
| 20260831092959 | 65 | 259 | 0.0 | 9.0 | 0.00 | 0.56 | 0.32 | 79 | 1008.1 |
| 20260831092014 | 64 | 274 | 0.0 | 5.0 | 0.00 | 0.56 | 0.32 | 82 | 1008.0 |
| 20260831085914 | 63 | 84 | 0.0 | 6.0 | 0.00 | 0.56 | 0.32 | 82 | 1007.8 |
| 20260831084844 | 63 | 290 | 1.0 | 6.0 | 0.00 | 0.56 | 0.32 | 82 | 1007.5 |
| 20260831082641 | 62 | 281 | 0.0 | 10.0 | 0.00 | 0.56 | 0.32 | 85 | 1007.1 |
| 20260831081631 | 61 | 263 | 0.0 | 6.0 | 0.00 | 0.56 | 0.32 | 87 | 1007.0 |
| 20260831080645 | 61 | 221 | 1.0 | 10.0 | 0.00 | 0.56 | 0.32 | 89 | 1006.9 |
| 20260831074436 | 60 | 248 | 0.0 | 3.0 | 0.00 | 0.55 | 0.31 | 91 | 1006.6 |
| 20260831072308 | 59 | 262 | 0.0 | 9.0 | 0.00 | 0.55 | 0.31 | 91 | 1006.3 |
| 20260831071323 | 59 | 283 | 0.0 | 1.0 | 0.00 | 0.55 | 0.31 | 92 | 1006.2 |
| 20260831070253 | 58 | 268 | 0.0 | 0.0 | 0.00 | 0.55 | 0.31 | 92 | 1005.9 |
| 20260831065243 | 58 | 293 | 0.0 | 0.0 | 0.00 | 0.55 | 0.31 | 92 | 1005.8 |
| 20260831063052 | 57 | 82 | 0.0 | 0.0 | 0.00 | 0.55 | 0.31 | 92 | 1005.5 |
| 20260831062051 | 57 | 81 | 0.0 | 0.0 | 0.00 | 0.55 | 0.31 | 92 | 1005.3 |
| 20260831061110 | 56 | 81 | 0.0 | 0.0 | 0.00 | 0.55 | 0.31 | 92 | 1005.2 |
| 20260831054923 | 56 | 81 | 0.0 | 0.0 | 0.00 | 0.55 | 0.31 | 92 | 1005.0 |
| 20260831053916 | 56 | 75 | 0.0 | 0.0 | 0.00 | 0.55 | 0.31 | 92 | 1004.8 |
| 20260831051756 | 56 | 80 | 0.0 | 0.0 | 0.00 | 0.55 | 0.31 | 92 | 1004.6 |
| 20260831050815 | 56 | 83 | 0.0 | 0.0 | 0.00 | 0.55 | 0.31 | 92 | 1004.5 |
| 20260831044609 | 56 | 77 | 0.0 | 0.0 | 0.00 | 0.55 | 0.31 | 92 | 1004.2 |
| 20260831043619 | 56 | 77 | 0.0 | 0.0 | 0.00 | 0.55 | 0.31 | 92 | 1004.0 |
| 20260831040257 | 55 | 77 | 0.0 | 0.0 | 0.00 | 0.55 | 0.31 | 92 | 1003.8 |
| 20260831035236 | 55 | 77 | 0.0 | 0.0 | 0.00 | 0.55 | 0.30 | 92 | 1003.8 |
| 20260831034215 | 55 | 77 | 0.0 | 0.0 | 0.00 | 0.55 | 0.30 | 92 | 1003.7 |
| 20260831033223 | 56 | 77 | 0.0 | 0.0 | 0.00 | 0.55 | 0.30 | 92 | 1003.6 |
| 20260831032149 | 56 | 79 | 0.0 | 0.0 | 0.00 | 0.55 | 0.30 | 92 | 1003.5 |
| 20260831031115 | 56 | 79 | 0.0 | 0.0 | 0.00 | 0.55 | 0.30 | 92 | 1003.5 |
| 20260831030106 | 56 | 79 | 0.0 | 0.0 | 0.00 | 0.55 | 0.30 | 92 | 1003.4 |
| 20260831025056 | 56 | 79 | 0.0 | 0.0 | 0.00 | 0.55 | 0.30 | 92 | 1003.4 |
| 20260831023001 | 56 | 79 | 0.0 | 0.0 | 0.00 | 0.55 | 0.30 | 92 | 1003.3 |
| 20260831022000 | 56 | 79 | 0.0 | 0.0 | 0.00 | 0.55 | 0.30 | 92 | 1003.2 |
| 20260831015901 | 55 | 79 | 0.0 | 0.0 | 0.00 | 0.55 | 0.30 | 92 | 1003.1 |
| 20260831014921 | 55 | 79 | 0.0 | 0.0 | 0.00 | 0.55 | 0.30 | 91 | 1003.2 |
| 20260831012723 | 55 | 79 | 0.0 | 0.0 | 0.00 | 0.55 | 0.30 | 91 | 1003.2 |
| 20260831011653 | 55 | 79 | 0.0 | 0.0 | 0.00 | 0.55 | 0.30 | 91 | 1003.1 |
| 20260831010707 | 55 | 79 | 0.0 | 0.0 | 0.00 | 0.55 | 0.30 | 90 | 1003.2 |
| 20260831005732 | 55 | 79 | 0.0 | 0.0 | 0.00 | 0.55 | 0.30 | 90 | 1003.3 |
| 20260831002449 | 57 | 79 | 0.0 | 0.0 | 0.00 | 0.55 | 0.30 | 90 | 1003.2 |
| 20260831001426 | 57 | 262 | 0.0 | 0.0 | 0.03 | 0.55 | 0.30 | 90 | 1003.3 |
| 20260831000432 | 57 | 261 | 0.0 | 0.0 | 0.11 | 0.55 | 0.30 | 90 | 1003.2 |
| 20260830235407 | 57 | 261 | 0.0 | 0.0 | 0.11 | 0.49 | 0.25 | 90 | 1003.8 |
| 20260830234401 | 58 | 300 | 0.0 | 1.0 | 0.10 | 0.48 | 0.23 | 90 | 1003.8 |
| 20260830232147 | 58 | 347 | 0.0 | 0.0 | 0.30 | 0.44 | 0.19 | 90 | 1003.4 |
| 20260830230030 | 58 | 345 | 0.0 | 0.0 | 0.00 | 0.24 | 0.00 | 90 | 1003.7 |
| 20260830223849 | 58 | 346 | 0.0 | 0.0 | 0.00 | 0.24 | 0.24 | 89 | 1003.8 |
| 20260830222814 | 58 | 316 | 0.0 | 0.0 | 0.03 | 0.24 | 0.24 | 89 | 1003.9 |
| 20260830221835 | 58 | 315 | 0.0 | 0.0 | 0.06 | 0.24 | 0.24 | 89 | 1004.0 |
| 20260830215756 | 58 | 315 | 0.0 | 0.0 | 0.20 | 0.19 | 0.19 | 89 | 1004.3 |
| 20260830214758 | 58 | 13 | 0.0 | 0.0 | 0.15 | 0.16 | 0.16 | 88 | 1004.5 |
| 20260830212659 | 59 | 79 | 0.0 | 0.0 | 0.08 | 0.11 | 0.11 | 88 | 1004.8 |